Pt. Reyes RCA field Weather observations

Data are for 10 minute period ending at time listed.
 Day   Time   Solar   Ave.   Ave.  Ave.  Vector    Max.   Stn.   Total 
  of    of     Rad.   Air    Rel.  Wind   Wind     Wind   Baro. Precip.
Year   Day            Temp.  Hum.  Speed  Dir.     Gust   Pres.        
2014   (PST)   W/m2    F      %     mph   deg.      mph    mb.    in.  
-----------------------------------------------------------------------
 295    6:30    1.0    49   88.9     1     27.5     1.9   1013.5  0.00  
 295    6:40    5.0    49   90.3     1     53.8     2.5   1013.5  0.00  
 295    6:50   10.0    49   89.5     0     73.1     1.1   1013.5  0.00  
 295    7:00   21.0    49   88.5     0     90.6     0.7   1013.9  0.00  
 295    7:10   58.0    50   87.6     0      0.0     0.0   1013.9  0.00  
 295    7:20  112.0    52   86.5     0     95.8     0.9   1013.9  0.00  
 295    7:30  151.0    54   87.8     0     96.8     0.7   1014.2  0.00  
 295    7:40  180.0    56   88.1     0     31.4     1.4   1014.6  0.00  
 295    7:50  109.0    57   86.6     1     19.7     1.5   1014.6  0.00  
 295    8:00  176.0    57   83.7     1    343.8     1.6   1014.9  0.00  
 295    8:10  239.0    58   80.1     2      9.0     3.4   1014.9  0.00  
 295    8:20  285.0    59   76.6     3     13.7     4.5   1014.9  0.00  
 295    8:30  300.0    60   73.1     4      7.2     4.7   1014.9  0.00  
 295    8:40  321.0    61   70.8     4    354.8     5.4   1014.9  0.00  
 295    8:50  374.0    62   70.4     4    345.1     5.8   1014.9  0.00  
 295    9:00  408.0    62   71.7     4    354.5     7.0   1014.9  0.00  
 295    9:10  409.0    63   70.7     6    340.1     8.0   1014.9  0.00  
 295    9:20  443.0    63   70.0     7    340.1     9.1   1015.2  0.00  
 295    9:30  457.0    64   69.0     6    325.8     8.8   1015.2  0.00  
 295    9:40  411.0    64   70.3     6    334.0     8.3   1015.2  0.00  
 295    9:50  369.0    64   71.3     7    324.5     9.6   1015.2  0.00  
 295   10:00  423.0    64   70.0     6    312.8     7.7   1015.2  0.00  
 295   10:10  449.0    64   71.5     7    307.1     9.2   1015.2  0.00  
 295   10:20  535.0    64   72.5     7    309.8     9.3   1015.2  0.00  
 295   10:30  617.0    65   72.6     8    312.0    10.2   1015.2  0.00  
 295   10:40  494.0    65   72.9     8    308.5    10.6   1015.2  0.00  
 295   10:50  593.0    66   72.7     7    311.3     9.3   1015.6  0.00  
 295   11:00  575.0    66   73.5     8    310.4    10.2   1015.6  0.00  
 295   11:10  522.0    66   74.4     7    306.3     9.3   1015.2  0.00  
 295   11:20  536.0    66   74.0     7    311.7     9.8   1015.2  0.00  
 295   11:30  511.0    66   74.2     7    307.0     9.6   1015.2  0.00  
 295   11:40  493.0    66   73.6     6    302.4     8.6   1014.9  0.00  
 295   11:50  502.0    66   73.0     6    294.8     9.1   1014.9  0.00  
 295   12:00  566.0    66   72.5     7    303.8     9.8   1014.9  0.00  
 295   12:10  486.0    66   73.7     7    304.0     9.2   1014.9  0.00  
 295   12:20  564.0    66   73.2     7    301.0    11.7   1014.6  0.00  
 295   12:30  503.0    66   73.8     7    304.4    10.0   1014.6  0.00  
 295   12:40  504.0    67   73.3     6    299.9     9.1   1014.6  0.00  
 295   12:50  554.0    67   73.3     6    278.6     8.8   1014.6  0.00  
 295   13:00  549.0    67   72.1     7    264.6     9.3   1014.2  0.00  
 295   13:10  473.0    66   72.9     7    271.1     9.3   1013.9  0.00  
 295   13:20  433.0    66   75.8     7    262.8     9.1   1014.2  0.00  
 295   13:30  402.0    66   76.8     8    263.6    11.0   1014.2  0.00  
 295   13:40  368.0    65   78.1     8    273.8    10.1   1013.9  0.00  
 295   13:50  411.0    65   78.6     7    265.3    10.4   1013.9  0.00  
 295   14:00  408.0    66   77.5     7    267.2    10.5   1013.9  0.00  
 295   14:10  435.0    66   78.0     8    266.7    10.9   1013.9  0.00  
 295   14:20  405.0    66   77.8     7    263.5     9.9   1013.5  0.00  
 295   14:30  406.0    65   78.0     8    270.0    10.4   1013.5  0.00  
 295   14:40  387.0    66   76.8     8    272.1    10.4   1013.5  0.00  
 295   14:50  382.0    66   76.2     9    282.4    11.9   1013.5  0.00  
 295   15:00  355.0    66   77.8     9    281.2    11.8   1013.5  0.00  
 295   15:10  300.0    66   78.6     9    282.2    10.9   1013.5  0.00  
 295   15:20  333.0    66   78.4     8    274.1    11.2   1013.5  0.00  
 295   15:30  282.0    66   79.0     8    261.9    10.6   1013.5  0.00  
 295   15:40  238.0    65   80.6     8    262.3    10.2   1013.5  0.00  
 295   15:50  197.0    65   81.7     7    262.3     9.4   1013.5  0.00  
 295   16:00  151.0    64   83.6     8    267.0     9.3   1013.5  0.00  
 295   16:10   68.0    63   85.7     7    265.6     8.6   1013.5  0.00  
 295   16:20   55.0    62   88.5     7    268.0     8.8   1013.5  0.00  
 295   16:30   40.0    62   89.7     6    265.9     8.0   1013.5  0.00  
 295   16:40   38.0    62   90.1     6    267.4     8.6   1013.5  0.00  
 295   16:50   33.0    62   90.7     6    268.0     8.0   1013.5  0.00  
 295   17:00   27.0    62   91.1     5    262.6     6.4   1013.5  0.00  
 295   17:10   11.0    62   91.5     4    272.7     5.7   1013.5  0.00  
 295   17:20    4.0    61   91.8     4    273.5     5.6   1013.5  0.00  
 295   17:30    0.0    61   92.4     4    277.4     6.1   1013.5  0.00  
 295   17:40    0.0    61   93.1     4    269.9     5.2   1013.5  0.00  
 295   17:50    0.0    60   93.6     5    279.5     6.1   1013.9  0.00  
 295   18:00    0.0    60   94.2     4    288.4     4.7   1013.9  0.00  
 295   18:10    0.0    60   94.3     3    296.5     3.9   1013.5  0.00  
 295   18:20    0.0    60   94.4     2      6.0     2.3   1013.5  0.00  
 295   18:30    0.0    59   94.5     1     47.6     1.4   1013.5  0.00  
 295   18:40    0.0    58   95.0     1     38.2     1.3   1013.5  0.00  
 295   18:50    0.0    59   95.4     0     43.3     1.5   1013.9  0.00  
 295   19:00    0.0    59   95.5     1     82.8     1.5   1013.9  0.00  
 295   19:10    0.0    59   95.8     2    104.1     2.0   1013.9  0.00  
 295   19:20    0.0    59   95.9     2    100.0     3.0   1013.9  0.00  
 295   19:30    0.0    58   96.0     1     89.3     2.3   1013.9  0.00  
 295   19:40    0.0    58   96.1     1     63.2     1.5   1013.9  0.00  
 295   19:50    0.0    59   96.3     0     83.1     1.2   1013.9  0.00  
 295   20:00    0.0    59   96.4     1    103.4     1.7   1013.9  0.00  
 295   20:10    0.0    59   96.5     2    123.5     2.5   1013.9  0.00  
 295   20:20    0.0    58   96.4     2    166.6     3.0   1013.9  0.00  
 295   20:30    0.0    57   96.3     3    143.1     4.7   1013.9  0.00  
 295   20:40    0.0    57   96.5     4    122.1     4.9   1013.5  0.00  
 295   20:50    0.0    57   96.7     2    164.5     3.5   1013.9  0.00  
 295   21:00    0.0    57   96.7     2    149.7     2.9   1013.9  0.00  
 295   21:10    0.0    57   96.7     4    123.3     5.3   1013.9  0.00  
 295   21:20    0.0    56   96.7     4    110.8     5.2   1013.9  0.00  
 295   21:30    0.0    56   96.9     3    119.2     4.3   1013.9  0.00  
 295   21:40    0.0    57   97.1     4    109.8     3.9   1013.9  0.00  
 295   21:50    0.0    57   97.1     3    101.7     3.7   1013.9  0.00  
 295   22:00    0.0    56   97.1     3     99.5     3.3   1013.9  0.00  
 295   22:10    0.0    56   97.1     3    103.1     3.3   1013.9  0.00  
 295   22:20    0.0    57   97.3     3    100.4     3.9   1013.9  0.00  
 295   22:30    0.0    56   97.2     4     96.1     5.0   1013.9  0.00  
 295   22:40    0.0    55   97.2     3    100.1     4.6   1013.5  0.00  
 295   22:50    0.0    56   97.3     4    108.1     5.4   1013.5  0.00  
 295   23:00    0.0    56   97.3     3    118.3     4.8   1013.5  0.00  
 295   23:10    0.0    56   97.4     2    127.8     3.4   1013.5  0.00  
 295   23:20    0.0    56   97.4     1    139.3     1.5   1013.5  0.00  
 295   23:30    0.0    56   97.4     0    137.3     1.0   1013.5  0.00  
 295   23:40    0.0    56   97.4     0    128.6     1.4   1013.5  0.00  
 295   23:50    0.0    55   97.4     2    114.9     3.4   1013.5  0.00  
 296    0:00    0.0    54   97.4     2    105.5     3.0   1013.9  0.00  
 296    0:10    0.0    54   97.5     1    113.9     2.5   1013.9  0.00  
 296    0:20    0.0    54   97.6     1    102.0     2.2   1013.9  0.00  
 296    0:30    0.0    55   97.6     3     98.3     3.4   1013.5  0.00  
 296    0:40    0.0    56   97.6     3    102.1     3.6   1013.5  0.00  
 296    0:50    0.0    56   97.7     2    103.7     2.6   1013.5  0.00  
 296    1:00    0.0    56   97.7     2    116.0     2.7   1013.5  0.00  
 296    1:10    0.0    57   97.7     1    118.4     2.5   1013.5  0.00  
 296    1:20    0.0    56   97.7     2    110.8     2.9   1013.5  0.00  
 296    1:30    0.0    57   97.7     1     88.0     1.8   1013.5  0.00  
 296    1:40    0.0    57   97.7     1     44.9     1.2   1013.5  0.00  
 296    1:50    0.0    56   97.6     2     37.0     2.6   1013.9  0.00  
 296    2:00    0.0    56   97.7     2     16.7     2.6   1013.9  0.00  
 296    2:10    0.0    57   97.7     2    352.3     2.9   1013.9  0.00  
 296    2:20    0.0    57   97.7     2     56.2     2.4   1013.5  0.00  
 296    2:30    0.0    57   97.7     2     50.1     2.6   1013.5  0.00  
 296    2:40    0.0    58   97.7     2     75.8     3.3   1013.5  0.00  
 296    2:50    0.0    58   97.7     3     83.8     4.1   1013.2  0.00  
 296    3:00    0.0    58   97.7     4     86.3     4.3   1012.9  0.00  
 296    3:10    0.0    58   97.7     4     98.6     5.4   1012.9  0.00  
 296    3:20    0.0    58   97.7     3     91.5     4.3   1012.9  0.00  
 296    3:30    0.0    58   97.7     3     91.9     4.2   1012.9  0.00  
 296    3:40    0.0    58   97.7     2    109.9     2.7   1012.9  0.00  
 296    3:50    0.0    58   97.7     2    119.2     3.1   1012.9  0.00  
 296    4:00    0.0    58   97.7     2    126.8     2.6   1012.9  0.00  
 296    4:10    0.0    59   97.7     2    138.8     2.5   1012.9  0.00  
 296    4:20    0.0    60   97.7     1    126.6     1.8   1012.9  0.00  
 296    4:30    0.0    59   97.7     2    107.3     2.9   1012.9  0.00  
 296    4:40    0.0    60   97.6     3    123.7     4.2   1012.9  0.00  
 296    4:50    0.0    60   97.6     3    123.3     4.8   1013.2  0.00  
 296    5:00    0.0    59   97.6     4    115.4     4.9   1013.2  0.00  
 296    5:10    0.0    59   97.6     3    101.3     3.7   1013.2  0.00  
 296    5:20    0.0    59   97.6     2     79.9     2.6   1013.5  0.00  
 296    5:30    0.0    59   97.6     3     89.2     3.6   1013.5  0.00  
 296    5:40    0.0    59   97.6     3     92.2     3.7   1013.5  0.00  
 296    5:50    0.0    59   97.6     2     92.3     2.9   1013.5  0.00  
 296    6:00    0.0    59   97.6     3     97.1     3.5   1013.5  0.00  
 296    6:10    0.0    59   97.6     2     95.8     3.4   1013.9  0.00  
 296    6:20    0.0    59   97.6     2     95.2     2.7   1013.9  0.00  

Return to Pt. Reyes graphs page.


Western Regional Climate Center,wrcc@dri.edu